| time (UTC) | temp F | wind direction | speed MPH | gust MPH | rain 1hr in | rain 24hr in | rain mn in | humidity % | barometer mb |
| 20260510200823 | 48 | 360 | 0.0 | 4.0 | 0.00 | 0.00 | 0.00 | 60 | 1018.7 |
| 20260510195823 | 48 | 360 | 0.0 | 4.0 | 0.00 | 0.00 | 0.00 | 59 | 1018.7 |
| 20260510195323 | 48 | 360 | 1.0 | 4.0 | 0.00 | 0.00 | 0.00 | 60 | 1018.7 |
| 20260510194823 | 48 | 360 | 0.0 | 4.0 | 0.00 | 0.00 | 0.00 | 59 | 1018.7 |
| 20260510194323 | 49 | 360 | 1.0 | 4.0 | 0.00 | 0.00 | 0.00 | 58 | 1018.7 |
| 20260510193823 | 49 | 360 | 4.0 | 4.0 | 0.00 | 0.00 | 0.00 | 58 | 1018.7 |
| 20260510193323 | 49 | 360 | 0.0 | 4.0 | 0.00 | 0.00 | 0.00 | 57 | 1018.7 |
| 20260510192823 | 50 | 360 | 3.0 | 4.0 | 0.00 | 0.00 | 0.00 | 56 | 1018.6 |
| 20260510192323 | 50 | 360 | 8.0 | 4.0 | 0.00 | 0.00 | 0.00 | 55 | 1018.6 |
| 20260510191323 | 50 | 360 | 1.0 | 4.0 | 0.00 | 0.00 | 0.00 | 57 | 1018.3 |
| 20260510190823 | 50 | 360 | 0.0 | 4.0 | 0.00 | 0.00 | 0.00 | 58 | 1018.3 |
| 20260510190323 | 50 | 360 | 0.0 | 4.0 | 0.00 | 0.00 | 0.00 | 58 | 1018.2 |
| 20260510185823 | 50 | 360 | 3.0 | 4.0 | 0.00 | 0.00 | 0.00 | 60 | 1018.3 |
| 20260510185323 | 49 | 360 | 1.0 | 4.0 | 0.00 | 0.00 | 0.00 | 60 | 1018.1 |
| 20260510184323 | 49 | 360 | 1.0 | 4.0 | 0.00 | 0.00 | 0.00 | 62 | 1018.1 |
| 20260510183823 | 48 | 360 | 3.0 | 4.0 | 0.00 | 0.00 | 0.00 | 63 | 1018.0 |
| 20260510183323 | 48 | 360 | 0.0 | 4.0 | 0.00 | 0.00 | 0.00 | 65 | 1018.0 |
| 20260510182823 | 48 | 360 | 0.0 | 4.0 | 0.00 | 0.00 | 0.00 | 63 | 1017.9 |
| 20260510182323 | 48 | 360 | 3.0 | 4.0 | 0.00 | 0.00 | 0.00 | 62 | 1017.9 |
| 20260510181823 | 48 | 360 | 3.0 | 4.0 | 0.00 | 0.00 | 0.00 | 63 | 1017.7 |
| 20260510181323 | 48 | 360 | 4.0 | 4.0 | 0.00 | 0.00 | 0.00 | 63 | 1017.6 |
| 20260510180823 | 48 | 360 | 4.0 | 6.0 | 0.00 | 0.00 | 0.00 | 63 | 1017.6 |
| 20260510175827 | 47 | 360 | 0.0 | 0.0 | 0.00 | 0.00 | 0.00 | 67 | 1017.4 |
| 20260510175327 | 47 | 360 | 6.0 | 0.0 | 0.00 | 0.00 | 0.00 | 66 | 1017.5 |
| 20260510174827 | 47 | 360 | 4.0 | 0.0 | 0.00 | 0.00 | 0.00 | 63 | 1017.5 |
| 20260510174327 | 48 | 360 | 0.0 | 0.0 | 0.00 | 0.00 | 0.00 | 64 | 1017.4 |
| 20260510173827 | 48 | 360 | 0.0 | 6.0 | 0.00 | 0.00 | 0.00 | 64 | 1017.4 |
| 20260510172825 | 48 | 360 | 1.0 | 6.0 | 0.00 | 0.00 | 0.00 | 63 | 1017.4 |
| 20260510172325 | 48 | 360 | 0.0 | 6.0 | 0.00 | 0.00 | 0.00 | 63 | 1017.3 |
| 20260510171825 | 48 | 360 | 1.0 | 6.0 | 0.00 | 0.00 | 0.00 | 63 | 1017.4 |
| 20260510171326 | 48 | 360 | 3.0 | 6.0 | 0.00 | 0.00 | 0.00 | 62 | 1017.3 |
| 20260510170325 | 49 | 360 | 3.0 | 6.0 | 0.00 | 0.00 | 0.00 | 59 | 1017.3 |
| 20260510165825 | 50 | 360 | 3.0 | 6.0 | 0.00 | 0.00 | 0.00 | 59 | 1017.2 |
| 20260510165325 | 50 | 360 | 3.0 | 6.0 | 0.00 | 0.00 | 0.00 | 59 | 1017.4 |
| 20260510164325 | 49 | 360 | 3.0 | 6.0 | 0.00 | 0.00 | 0.00 | 62 | 1017.4 |
| 20260510163825 | 49 | 360 | 3.0 | 6.0 | 0.00 | 0.00 | 0.00 | 62 | 1017.3 |
| 20260510163325 | 49 | 360 | 3.0 | 6.0 | 0.00 | 0.00 | 0.00 | 61 | 1017.2 |
| 20260510162825 | 48 | 360 | 3.0 | 6.0 | 0.00 | 0.00 | 0.00 | 62 | 1017.2 |
| 20260510162325 | 48 | 360 | 5.0 | 6.0 | 0.00 | 0.00 | 0.00 | 60 | 1017.1 |
| 20260510161825 | 49 | 360 | 0.0 | 6.0 | 0.00 | 0.00 | 0.00 | 60 | 1017.1 |
| 20260510161325 | 49 | 360 | 2.0 | 6.0 | 0.00 | 0.00 | 0.00 | 61 | 1017.0 |
| 20260510160825 | 49 | 360 | 1.0 | 6.0 | 0.00 | 0.00 | 0.00 | 60 | 1016.9 |
| 20260510160325 | 49 | 360 | 2.0 | 6.0 | 0.00 | 0.00 | 0.00 | 60 | 1016.9 |
| 20260510155826 | 49 | 360 | 3.0 | 6.0 | 0.00 | 0.00 | 0.00 | 58 | 1016.8 |
| 20260510154825 | 49 | 360 | 3.0 | 6.0 | 0.00 | 0.00 | 0.00 | 58 | 1016.8 |
| 20260510154325 | 49 | 350 | 2.0 | 6.0 | 0.00 | 0.00 | 0.00 | 58 | 1016.7 |
| 20260510153825 | 49 | 360 | 3.0 | 6.0 | 0.00 | 0.00 | 0.00 | 61 | 1016.7 |
| 20260510153325 | 49 | 360 | 4.0 | 6.0 | 0.00 | 0.00 | 0.00 | 59 | 1016.7 |
| 20260510152825 | 49 | 360 | 2.0 | 6.0 | 0.00 | 0.00 | 0.00 | 59 | 1016.7 |
| 20260510151825 | 48 | 360 | 1.0 | 6.0 | 0.00 | 0.00 | 0.00 | 59 | 1016.5 |
| 20260510151325 | 49 | 360 | 4.0 | 6.0 | 0.00 | 0.00 | 0.00 | 57 | 1016.4 |
| 20260510150825 | 49 | 360 | 0.0 | 6.0 | 0.00 | 0.00 | 0.00 | 57 | 1016.3 |
| 20260510150325 | 49 | 360 | 2.0 | 6.0 | 0.00 | 0.00 | 0.00 | 57 | 1016.3 |
| 20260510145825 | 49 | 360 | 6.0 | 6.0 | 0.00 | 0.00 | 0.00 | 62 | 1016.2 |
| 20260510145325 | 48 | 360 | 2.0 | 6.0 | 0.00 | 0.00 | 0.00 | 61 | 1016.1 |
| 20260510143825 | 48 | 360 | 4.0 | 6.0 | 0.00 | 0.00 | 0.00 | 62 | 1015.9 |
| 20260510143325 | 48 | 360 | 2.0 | 6.0 | 0.00 | 0.00 | 0.00 | 61 | 1015.9 |
| 20260510142825 | 48 | 360 | 5.0 | 6.0 | 0.00 | 0.00 | 0.00 | 62 | 1015.9 |
| 20260510142325 | 48 | 360 | 1.0 | 6.0 | 0.00 | 0.00 | 0.00 | 63 | 1015.8 |
| 20260510141825 | 48 | 360 | 0.0 | 6.0 | 0.00 | 0.00 | 0.00 | 63 | 1015.8 |
| 20260510141325 | 48 | 360 | 0.0 | 6.0 | 0.00 | 0.00 | 0.00 | 63 | 1015.7 |
| 20260510140825 | 48 | 360 | 0.0 | 6.0 | 0.00 | 0.00 | 0.00 | 63 | 1015.7 |
| 20260510135835 | 47 | 360 | 1.0 | 0.0 | 0.00 | 0.00 | 0.00 | 61 | 1015.6 |
| 20260510135334 | 47 | 360 | 3.0 | 0.0 | 0.00 | 0.00 | 0.00 | 62 | 1015.6 |
| 20260510134834 | 47 | 360 | 1.0 | 0.0 | 0.00 | 0.00 | 0.00 | 62 | 1015.5 |
| 20260510134334 | 47 | 360 | 0.0 | 0.0 | 0.00 | 0.00 | 0.00 | 61 | 1015.6 |
| 20260510133835 | 46 | 360 | 3.0 | 0.0 | 0.00 | 0.00 | 0.00 | 66 | 1015.4 |
| 20260510133334 | 46 | 360 | 0.0 | 0.0 | 0.00 | 0.00 | 0.00 | 63 | 1015.4 |
| 20260510132835 | 46 | 360 | 0.0 | 0.0 | 0.00 | 0.00 | 0.00 | 65 | 1015.5 |
| 20260510132334 | 46 | 360 | 0.0 | 0.0 | 0.00 | 0.00 | 0.00 | 65 | 1015.4 |
| 20260510131834 | 46 | 360 | 0.0 | 0.0 | 0.00 | 0.00 | 0.00 | 66 | 1015.4 |
| 20260510131335 | 45 | 360 | 0.0 | 0.0 | 0.00 | 0.00 | 0.00 | 69 | 1015.4 |
| 20260510130834 | 45 | 360 | 0.0 | 0.0 | 0.00 | 0.00 | 0.00 | 67 | 1015.5 |
| 20260510130334 | 45 | 360 | 0.0 | 0.0 | 0.00 | 0.00 | 0.00 | 71 | 1015.4 |
| 20260510125834 | 44 | 360 | 0.0 | 0.0 | 0.00 | 0.00 | 0.00 | 72 | 1015.3 |
| 20260510124334 | 43 | 360 | 0.0 | 0.0 | 0.00 | 0.00 | 0.00 | 75 | 1015.2 |
| 20260510123334 | 42 | 360 | 0.0 | 0.0 | 0.00 | 0.00 | 0.00 | 78 | 1015.0 |
| 20260510122334 | 41 | 360 | 0.0 | 0.0 | 0.00 | 0.00 | 0.00 | 80 | 1015.0 |
| 20260510121834 | 41 | 360 | 0.0 | 0.0 | 0.00 | 0.00 | 0.00 | 84 | 1015.0 |
| 20260510120835 | 40 | 360 | 0.0 | 0.0 | 0.00 | 0.00 | 0.00 | 89 | 1014.7 |
| 20260510120335 | 39 | 360 | 0.0 | 0.0 | 0.00 | 0.00 | 0.00 | 91 | 1014.7 |
| 20260510115834 | 38 | 360 | 0.0 | 0.0 | 0.00 | 0.00 | 0.00 | 93 | 1014.6 |
| 20260510115334 | 37 | 360 | 0.0 | 0.0 | 0.00 | 0.00 | 0.00 | 94 | 1014.6 |
| 20260510114834 | 36 | 360 | 0.0 | 0.0 | 0.00 | 0.00 | 0.00 | 94 | 1014.5 |
| 20260510113835 | 34 | 360 | 0.0 | 0.0 | 0.00 | 0.00 | 0.00 | 94 | 1014.4 |
| 20260510113334 | 34 | 360 | 0.0 | 0.0 | 0.00 | 0.00 | 0.00 | 94 | 1014.3 |
| 20260510112335 | 33 | 360 | 0.0 | 0.0 | 0.00 | 0.00 | 0.00 | 94 | 1014.2 |
| 20260510111834 | 32 | 360 | 0.0 | 0.0 | 0.00 | 0.00 | 0.00 | 94 | 1013.9 |
| 20260510111334 | 32 | 360 | 0.0 | 0.0 | 0.00 | 0.00 | 0.00 | 94 | 1014.0 |
| 20260510105835 | 31 | 360 | 0.0 | 0.0 | 0.00 | 0.00 | 0.00 | 93 | 1013.8 |
| 20260510105334 | 31 | 360 | 0.0 | 0.0 | 0.00 | 0.00 | 0.00 | 93 | 1013.8 |
| 20260510104335 | 31 | 360 | 0.0 | 0.0 | 0.00 | 0.00 | 0.00 | 92 | 1013.5 |
| 20260510103834 | 31 | 360 | 0.0 | 0.0 | 0.00 | 0.00 | 0.00 | 93 | 1013.4 |
| 20260510102834 | 32 | 360 | 0.0 | 0.0 | 0.00 | 0.00 | 0.00 | 92 | 1013.4 |
| 20260510102335 | 32 | 360 | 0.0 | 0.0 | 0.00 | 0.00 | 0.00 | 92 | 1013.3 |
| 20260510101834 | 32 | 360 | 0.0 | 0.0 | 0.00 | 0.00 | 0.00 | 92 | 1013.2 |
| 20260510101334 | 32 | 360 | 0.0 | 0.0 | 0.00 | 0.00 | 0.00 | 92 | 1013.2 |
| 20260510100834 | 32 | 360 | 0.0 | 0.0 | 0.00 | 0.00 | 0.00 | 92 | 1013.0 |
| 20260510095827 | 32 | 360 | 0.0 | 0.0 | 0.00 | 0.00 | 0.00 | 92 | 1012.9 |
| 20260510095327 | 32 | 360 | 0.0 | 0.0 | 0.00 | 0.00 | 0.00 | 92 | 1013.0 |
| 20260510094827 | 32 | 360 | 0.0 | 0.0 | 0.00 | 0.00 | 0.00 | 92 | 1012.9 |
| 20260510094327 | 32 | 360 | 0.0 | 0.0 | 0.00 | 0.00 | 0.00 | 92 | 1012.9 |
| 20260510093827 | 33 | 360 | 0.0 | 0.0 | 0.00 | 0.00 | 0.00 | 92 | 1012.8 |
| 20260510093327 | 33 | 360 | 0.0 | 0.0 | 0.00 | 0.00 | 0.00 | 92 | 1012.7 |
| 20260510092327 | 33 | 360 | 0.0 | 0.0 | 0.00 | 0.00 | 0.00 | 92 | 1012.6 |
| 20260510091827 | 33 | 360 | 0.0 | 0.0 | 0.00 | 0.00 | 0.00 | 92 | 1012.5 |
| 20260510091327 | 33 | 360 | 0.0 | 0.0 | 0.00 | 0.00 | 0.00 | 91 | 1012.5 |
| 20260510090827 | 33 | 360 | 0.0 | 0.0 | 0.00 | 0.00 | 0.00 | 91 | 1012.4 |
| 20260510090327 | 33 | 360 | 0.0 | 0.0 | 0.00 | 0.00 | 0.00 | 91 | 1012.3 |
| 20260510085827 | 33 | 360 | 0.0 | 0.0 | 0.00 | 0.00 | 0.00 | 91 | 1012.3 |
| 20260510084827 | 34 | 360 | 0.0 | 0.0 | 0.00 | 0.00 | 0.00 | 90 | 1012.3 |
| 20260510084327 | 34 | 360 | 0.0 | 0.0 | 0.00 | 0.00 | 0.00 | 90 | 1012.2 |
| 20260510083827 | 34 | 360 | 0.0 | 0.0 | 0.00 | 0.00 | 0.00 | 90 | 1012.1 |
| 20260510083327 | 34 | 360 | 0.0 | 0.0 | 0.00 | 0.00 | 0.00 | 90 | 1012.1 |
| 20260510082827 | 35 | 360 | 0.0 | 0.0 | 0.00 | 0.00 | 0.00 | 90 | 1012.0 |
| 20260510082327 | 35 | 360 | 0.0 | 0.0 | 0.00 | 0.00 | 0.00 | 90 | 1011.8 |
| 20260510081827 | 35 | 360 | 0.0 | 0.0 | 0.00 | 0.00 | 0.00 | 90 | 1011.9 |
| 20260510080827 | 35 | 360 | 0.0 | 0.0 | 0.00 | 0.00 | 0.00 | 90 | 1011.8 |
| 20260510080327 | 35 | 360 | 0.0 | 0.0 | 0.00 | 0.00 | 0.00 | 90 | 1011.8 |
| 20260510075827 | 35 | 360 | 0.0 | 0.0 | 0.00 | 0.00 | 0.00 | 90 | 1011.8 |
| 20260510075327 | 35 | 360 | 0.0 | 0.0 | 0.00 | 0.00 | 0.00 | 90 | 1011.7 |
| 20260510074827 | 35 | 360 | 0.0 | 0.0 | 0.00 | 0.00 | 0.00 | 90 | 1011.7 |
| 20260510074327 | 35 | 360 | 0.0 | 0.0 | 0.00 | 0.00 | 0.00 | 90 | 1011.6 |
| 20260510073827 | 35 | 360 | 0.0 | 0.0 | 0.00 | 0.00 | 0.00 | 91 | 1011.6 |
| 20260510073327 | 35 | 360 | 0.0 | 0.0 | 0.00 | 0.00 | 0.00 | 91 | 1011.6 |
| 20260510072827 | 34 | 360 | 0.0 | 0.0 | 0.00 | 0.00 | 0.00 | 92 | 1011.5 |
| 20260510072327 | 34 | 360 | 0.0 | 0.0 | 0.00 | 0.00 | 0.00 | 92 | 1011.4 |
| 20260510071827 | 33 | 360 | 0.0 | 0.0 | 0.00 | 0.00 | 0.00 | 92 | 1011.3 |
| 20260510070327 | 32 | 360 | 0.0 | 0.0 | 0.00 | 0.00 | 0.00 | 92 | 1011.0 |
| 20260510065827 | 32 | 360 | 0.0 | 0.0 | 0.00 | 0.00 | 0.00 | 91 | 1010.9 |
| 20260510065327 | 32 | 360 | 0.0 | 0.0 | 0.00 | 0.00 | 0.00 | 91 | 1011.1 |
| 20260510064327 | 32 | 360 | 0.0 | 0.0 | 0.00 | 0.00 | 0.00 | 90 | 1011.0 |
| 20260510063827 | 32 | 360 | 0.0 | 0.0 | 0.00 | 0.00 | 0.00 | 89 | 1011.0 |
| 20260510063327 | 32 | 360 | 0.0 | 0.0 | 0.00 | 0.00 | 0.00 | 89 | 1011.0 |
| 20260510062827 | 32 | 360 | 0.0 | 0.0 | 0.00 | 0.00 | 0.00 | 89 | 1010.9 |
| 20260510062327 | 32 | 360 | 0.0 | 0.0 | 0.00 | 0.00 | 0.00 | 89 | 1010.9 |
| 20260510061827 | 32 | 360 | 0.0 | 0.0 | 0.00 | 0.00 | 0.00 | 88 | 1010.9 |
| 20260510061327 | 32 | 360 | 0.0 | 0.0 | 0.00 | 0.00 | 0.00 | 88 | 1010.8 |
| 20260510060827 | 32 | 360 | 0.0 | 0.0 | 0.00 | 0.00 | 0.00 | 87 | 1010.8 |
| 20260510055823 | 33 | 360 | 0.0 | 0.0 | 0.00 | 0.00 | 0.00 | 86 | 1010.7 |
| 20260510055323 | 33 | 360 | 0.0 | 0.0 | 0.00 | 0.00 | 0.00 | 85 | 1010.5 |
| 20260510054823 | 33 | 360 | 0.0 | 0.0 | 0.00 | 0.00 | 0.00 | 85 | 1010.5 |
| 20260510054323 | 34 | 360 | 0.0 | 0.0 | 0.00 | 0.00 | 0.00 | 85 | 1010.5 |
| 20260510053823 | 34 | 360 | 0.0 | 0.0 | 0.00 | 0.00 | 0.00 | 84 | 1010.5 |
| 20260510053323 | 34 | 360 | 0.0 | 0.0 | 0.00 | 0.00 | 0.00 | 84 | 1010.5 |
| 20260510052823 | 34 | 360 | 0.0 | 0.0 | 0.00 | 0.00 | 0.00 | 84 | 1010.5 |
| 20260510052323 | 35 | 360 | 0.0 | 0.0 | 0.00 | 0.00 | 0.00 | 83 | 1010.4 |
| 20260510051823 | 35 | 360 | 0.0 | 0.0 | 0.00 | 0.00 | 0.00 | 82 | 1010.5 |
| 20260510051323 | 35 | 360 | 0.0 | 0.0 | 0.00 | 0.00 | 0.00 | 82 | 1010.4 |
| 20260510050823 | 36 | 360 | 0.0 | 0.0 | 0.00 | 0.00 | 0.00 | 82 | 1010.4 |
| 20260510050323 | 36 | 360 | 0.0 | 0.0 | 0.00 | 0.00 | 0.00 | 81 | 1010.4 |
| 20260510045823 | 36 | 360 | 0.0 | 0.0 | 0.00 | 0.00 | 0.00 | 80 | 1010.4 |
| 20260510045323 | 37 | 360 | 0.0 | 0.0 | 0.00 | 0.00 | 0.00 | 80 | 1010.3 |
| 20260510044823 | 37 | 360 | 0.0 | 0.0 | 0.00 | 0.00 | 0.00 | 80 | 1010.3 |
| 20260510044323 | 37 | 360 | 0.0 | 0.0 | 0.00 | 0.00 | 0.00 | 79 | 1010.2 |
| 20260510043823 | 38 | 360 | 0.0 | 0.0 | 0.00 | 0.00 | 0.00 | 79 | 1010.2 |
| 20260510043323 | 38 | 360 | 0.0 | 0.0 | 0.00 | 0.00 | 0.00 | 78 | 1010.2 |
| 20260510042823 | 38 | 360 | 0.0 | 0.0 | 0.00 | 0.00 | 0.00 | 77 | 1010.1 |
| 20260510041823 | 39 | 360 | 0.0 | 0.0 | 0.00 | 0.00 | 0.00 | 76 | 1010.2 |
| 20260510041323 | 39 | 360 | 0.0 | 0.0 | 0.00 | 0.00 | 0.00 | 75 | 1010.2 |
| 20260510040823 | 40 | 360 | 0.0 | 0.0 | 0.00 | 0.00 | 0.00 | 74 | 1010.2 |
| 20260510040323 | 40 | 360 | 0.0 | 0.0 | 0.00 | 0.00 | 0.00 | 74 | 1010.2 |
| 20260510035823 | 40 | 360 | 0.0 | 0.0 | 0.00 | 0.00 | 0.00 | 73 | 1010.2 |
| 20260510035323 | 41 | 360 | 0.0 | 0.0 | 0.00 | 0.00 | 0.00 | 72 | 1010.0 |
| 20260510034823 | 41 | 360 | 0.0 | 0.0 | 0.00 | 0.00 | 0.00 | 72 | 1010.0 |
| 20260510034323 | 41 | 360 | 0.0 | 0.0 | 0.00 | 0.00 | 0.00 | 72 | 1009.9 |
| 20260510033824 | 41 | 360 | 0.0 | 0.0 | 0.00 | 0.00 | 0.00 | 72 | 1009.8 |
| 20260510032823 | 41 | 360 | 0.0 | 0.0 | 0.00 | 0.00 | 0.00 | 72 | 1009.7 |
| 20260510032323 | 41 | 360 | 5.0 | 0.0 | 0.00 | 0.00 | 0.00 | 73 | 1009.6 |
| 20260510031823 | 41 | 360 | 0.0 | 0.0 | 0.00 | 0.00 | 0.00 | 73 | 1009.6 |
| 20260510030823 | 41 | 360 | 0.0 | 0.0 | 0.00 | 0.00 | 0.00 | 74 | 1009.4 |
| 20260510025823 | 41 | 360 | 0.0 | 0.0 | 0.00 | 0.00 | 0.00 | 74 | 1009.3 |
| 20260510025323 | 41 | 360 | 0.0 | 0.0 | 0.00 | 0.00 | 0.00 | 74 | 1009.3 |
| 20260510024823 | 41 | 360 | 0.0 | 0.0 | 0.00 | 0.00 | 0.00 | 74 | 1009.3 |
| 20260510023823 | 40 | 360 | 0.0 | 0.0 | 0.00 | 0.00 | 0.00 | 74 | 1009.2 |
| 20260510023323 | 40 | 360 | 0.0 | 0.0 | 0.00 | 0.00 | 0.00 | 74 | 1009.1 |
| 20260510022323 | 40 | 360 | 0.0 | 0.0 | 0.00 | 0.00 | 0.00 | 74 | 1009.0 |
| 20260510021823 | 40 | 360 | 5.0 | 0.0 | 0.00 | 0.00 | 0.00 | 74 | 1008.9 |
| 20260510021323 | 40 | 360 | 0.0 | 0.0 | 0.00 | 0.00 | 0.00 | 74 | 1008.9 |
| 20260510020823 | 40 | 360 | 0.0 | 6.0 | 0.00 | 0.00 | 0.00 | 73 | 1008.8 |
| 20260510015826 | 41 | 360 | 0.0 | 6.0 | 0.00 | 0.00 | 0.00 | 73 | 1009.0 |
| 20260510015326 | 41 | 360 | 0.0 | 6.0 | 0.00 | 0.00 | 0.00 | 72 | 1009.0 |
| 20260510014326 | 41 | 360 | 0.0 | 6.0 | 0.00 | 0.00 | 0.00 | 72 | 1008.8 |
| 20260510013826 | 41 | 360 | 0.0 | 6.0 | 0.00 | 0.00 | 0.00 | 72 | 1008.8 |
| 20260510013326 | 42 | 360 | 0.0 | 6.0 | 0.00 | 0.00 | 0.00 | 72 | 1008.7 |
| 20260510012826 | 42 | 360 | 0.0 | 6.0 | 0.00 | 0.00 | 0.00 | 71 | 1008.6 |
| 20260510012326 | 42 | 360 | 0.0 | 6.0 | 0.00 | 0.00 | 0.00 | 71 | 1008.5 |
| 20260510011826 | 42 | 360 | 0.0 | 6.0 | 0.00 | 0.00 | 0.00 | 70 | 1008.4 |
| 20260510011326 | 43 | 360 | 0.0 | 6.0 | 0.00 | 0.00 | 0.00 | 70 | 1008.3 |
| 20260510010826 | 43 | 360 | 0.0 | 6.0 | 0.00 | 0.00 | 0.00 | 70 | 1008.2 |
| 20260510005826 | 44 | 360 | 2.0 | 6.0 | 0.00 | 0.00 | 0.00 | 68 | 1008.0 |
| 20260510005326 | 44 | 360 | 3.0 | 6.0 | 0.00 | 0.00 | 0.00 | 68 | 1007.8 |
| 20260510004826 | 44 | 360 | 0.0 | 6.0 | 0.00 | 0.00 | 0.00 | 67 | 1007.7 |
| 20260510004326 | 44 | 360 | 1.0 | 6.0 | 0.00 | 0.00 | 0.00 | 67 | 1007.7 |
| 20260510003326 | 45 | 360 | 2.0 | 6.0 | 0.00 | 0.00 | 0.00 | 66 | 1007.6 |
| 20260510002826 | 46 | 360 | 3.0 | 6.0 | 0.00 | 0.00 | 0.00 | 65 | 1007.5 |
| 20260510002326 | 46 | 360 | 2.0 | 6.0 | 0.00 | 0.00 | 0.00 | 65 | 1007.5 |
| 20260510001826 | 46 | 360 | 6.0 | 6.0 | 0.00 | 0.00 | 0.00 | 65 | 1007.4 |
| 20260510000826 | 47 | 360 | 8.0 | 6.0 | 0.00 | 0.00 | 0.00 | 62 | 1007.1 |
| 20260510000326 | 47 | 360 | 4.0 | 6.0 | 0.00 | 0.00 | 0.00 | 62 | 1007.0 |
| 20260509235826 | 48 | 360 | 5.0 | 6.0 | 0.00 | 0.00 | 0.00 | 63 | 1006.8 |
| 20260509235326 | 47 | 360 | 0.0 | 6.0 | 0.00 | 0.00 | 0.00 | 64 | 1006.7 |
| 20260509234826 | 47 | 360 | 6.0 | 6.0 | 0.00 | 0.00 | 0.00 | 63 | 1006.5 |
| 20260509234326 | 47 | 360 | 1.0 | 6.0 | 0.00 | 0.00 | 0.00 | 63 | 1006.5 |
| 20260509233826 | 47 | 360 | 1.0 | 6.0 | 0.00 | 0.00 | 0.00 | 63 | 1006.3 |
| 20260509233326 | 48 | 360 | 0.0 | 6.0 | 0.00 | 0.00 | 0.00 | 63 | 1006.2 |
| 20260509232826 | 48 | 360 | 0.0 | 6.0 | 0.00 | 0.00 | 0.00 | 63 | 1006.1 |
| 20260509232326 | 48 | 360 | 2.0 | 6.0 | 0.00 | 0.00 | 0.00 | 62 | 1005.9 |
| 20260509231826 | 49 | 360 | 2.0 | 6.0 | 0.00 | 0.00 | 0.00 | 61 | 1005.9 |
| 20260509231326 | 49 | 360 | 2.0 | 6.0 | 0.00 | 0.00 | 0.00 | 60 | 1005.8 |
| 20260509230826 | 50 | 360 | 5.0 | 6.0 | 0.00 | 0.00 | 0.00 | 58 | 1005.8 |
| 20260509230326 | 50 | 360 | 8.0 | 6.0 | 0.00 | 0.00 | 0.00 | 58 | 1005.6 |
| 20260509225826 | 50 | 360 | 0.0 | 6.0 | 0.00 | 0.00 | 0.00 | 58 | 1005.5 |
| 20260509225326 | 50 | 360 | 3.0 | 6.0 | 0.00 | 0.00 | 0.00 | 57 | 1005.3 |
| 20260509224826 | 50 | 360 | 1.0 | 6.0 | 0.00 | 0.00 | 0.00 | 56 | 1005.2 |
| 20260509224326 | 50 | 5 | 3.0 | 6.0 | 0.00 | 0.00 | 0.00 | 53 | 1005.0 |
| 20260509223826 | 51 | 360 | 8.0 | 6.0 | 0.00 | 0.00 | 0.00 | 51 | 1004.9 |
| 20260509222326 | 52 | 360 | 3.0 | 6.0 | 0.00 | 0.00 | 0.00 | 50 | 1004.6 |
| 20260509221826 | 52 | 360 | 2.0 | 6.0 | 0.00 | 0.00 | 0.00 | 47 | 1004.4 |
| 20260509220826 | 53 | 360 | 3.0 | 11.0 | 0.00 | 0.00 | 0.00 | 45 | 1004.4 |
| 20260509215332 | 54 | 360 | 0.0 | 3.0 | 0.00 | 0.00 | 0.00 | 43 | 1004.0 |
| 20260509214832 | 55 | 360 | 2.0 | 3.0 | 0.00 | 0.00 | 0.00 | 42 | 1003.9 |
| 20260509214332 | 56 | 360 | 0.0 | 3.0 | 0.00 | 0.00 | 0.00 | 45 | 1004.0 |
| 20260509213832 | 56 | 360 | 5.0 | 3.0 | 0.00 | 0.00 | 0.00 | 44 | 1003.8 |
| 20260509213332 | 56 | 360 | 2.0 | 3.0 | 0.00 | 0.00 | 0.00 | 45 | 1003.7 |
| 20260509212832 | 56 | 360 | 0.0 | 3.0 | 0.00 | 0.00 | 0.00 | 45 | 1003.5 |
| 20260509211832 | 55 | 360 | 2.0 | 3.0 | 0.00 | 0.00 | 0.00 | 46 | 1003.1 |
| 20260509211332 | 54 | 355 | 1.0 | 3.0 | 0.00 | 0.00 | 0.00 | 49 | 1003.1 |
| 20260509210332 | 53 | 360 | 0.0 | 3.0 | 0.00 | 0.00 | 0.00 | 50 | 1002.9 |
| 20260509205832 | 52 | 360 | 3.0 | 3.0 | 0.00 | 0.00 | 0.00 | 53 | 1002.9 |
| 20260509205332 | 52 | 360 | 0.0 | 3.0 | 0.00 | 0.00 | 0.00 | 51 | 1003.1 |
| 20260509204832 | 52 | 360 | 2.0 | 3.0 | 0.00 | 0.00 | 0.00 | 53 | 1003.2 |
| 20260509204332 | 52 | 360 | 5.0 | 3.0 | 0.00 | 0.00 | 0.00 | 52 | 1003.1 |
| 20260509203832 | 52 | 360 | 6.0 | 3.0 | 0.00 | 0.00 | 0.00 | 52 | 1003.0 |
| 20260509203332 | 52 | 360 | 3.0 | 3.0 | 0.00 | 0.00 | 0.00 | 53 | 1002.8 |
| 20260509202832 | 52 | 360 | 1.0 | 3.0 | 0.00 | 0.00 | 0.00 | 52 | 1002.8 |
| 20260509201832 | 51 | 360 | 0.0 | 3.0 | 0.00 | 0.00 | 0.00 | 54 | 1002.6 |
| 20260509201332 | 51 | 360 | 1.0 | 3.0 | 0.00 | 0.00 | 0.00 | 55 | 1002.4 |